CW7595 Weather Reports


Display with metric or nautical units.
time (UTC)temp
F
wind
direction
speed
MPH
gust
MPH
rain 1hr
in
rain 24hr
in
rain mn
in
humidity
%
barometer
mb
20260422050024 28 128 0.0 0.0 0.00 0.01 0.00 57 1022.4
20260422044518 29 128 0.0 0.0 0.00 0.01 0.00 56 1022.4
20260422043017 30 128 0.0 0.0 0.00 0.01 0.00 55 1022.4
20260422040018 29 128 0.0 0.0 0.00 0.01 0.01 57 1022.3
20260422034512 29 128 0.0 0.0 0.00 0.01 0.01 56 1022.4
20260422033012 29 115 0.0 0.0 0.00 0.01 0.01 57 1022.4
20260422031514 29 114 0.0 0.0 0.00 0.01 0.01 56 1022.5
20260422030011 30 113 0.0 0.0 0.00 0.01 0.01 55 1022.4
20260422024512 30 113 0.0 0.0 0.00 0.01 0.01 54 1022.4
20260422023010 30 111 0.0 0.0 0.00 0.01 0.01 54 1022.3
20260422021510 30 111 0.0 0.0 0.00 0.01 0.01 52 1022.4
20260422020009 30 111 0.0 0.0 0.00 0.01 0.01 52 1022.4
20260422014508 30 111 0.0 0.0 0.00 0.01 0.01 52 1022.4
20260422013010 31 315 0.0 0.0 0.00 0.01 0.01 52 1022.5
20260422011507 31 315 0.0 0.0 0.00 0.01 0.01 53 1022.4
20260422010007 32 315 0.0 0.0 0.00 0.01 0.01 47 1022.5
20260422004507 33 315 0.0 0.0 0.00 0.01 0.01 46 1022.4
20260422003006 33 313 0.0 0.0 0.00 0.01 0.01 43 1022.3
20260422001505 34 313 0.0 0.0 0.00 0.01 0.01 41 1022.2
20260422000011 35 313 0.0 0.0 0.00 0.01 0.01 40 1022.1
20260421234505 36 313 0.0 0.0 0.00 0.01 0.01 39 1022.0
20260421233004 37 313 0.0 0.0 0.00 0.01 0.01 36 1022.0
20260421231504 38 313 0.0 0.0 0.00 0.01 0.01 34 1022.0
20260421230003 39 313 0.0 0.0 0.00 0.01 0.01 33 1021.9
20260421224512 39 304 1.0 3.0 0.00 0.01 0.01 31 1021.9
20260421223008 39 276 0.0 4.0 0.00 0.01 0.01 30 1021.9
20260421221503 39 232 0.0 0.0 0.00 0.01 0.01 31 1021.8
20260421220002 39 232 0.0 0.0 0.00 0.01 0.01 31 1021.8
20260421214612 40 232 0.0 0.0 0.00 0.01 0.01 30 1021.8
20260421213059 41 197 0.0 1.0 0.00 0.01 0.01 32 1021.9
20260421211603 41 242 0.0 7.0 0.00 0.01 0.01 28 1021.9
20260421210100 41 208 0.0 0.0 0.00 0.01 0.01 32 1021.9
20260421204556 41 286 0.0 3.0 0.00 0.01 0.01 31 1022.2
20260421203057 42 232 0.0 6.0 0.00 0.01 0.01 28 1022.3
20260421201556 42 344 0.0 4.0 0.00 0.01 0.01 28 1022.4
20260421200051 41 146 0.0 2.0 0.00 0.01 0.01 32 1022.5
20260421194602 40 221 0.0 0.0 0.00 0.01 0.01 31 1022.8
20260421193051 42 267 1.0 6.0 0.00 0.01 0.01 34 1022.8
20260421191549 41 183 0.0 3.0 0.00 0.01 0.01 33 1023.0
20260421190053 40 181 0.0 5.0 0.00 0.02 0.01 31 1023.1
20260421184543 42 173 0.0 7.0 0.00 0.02 0.01 32 1023.4
20260421183107 41 313 0.0 7.0 0.00 0.02 0.01 34 1023.5
20260421181539 40 286 0.0 4.0 0.00 0.02 0.01 37 1023.7
20260421180035 39 28 0.0 4.0 0.00 0.02 0.01 38 1023.9
20260421174537 39 149 0.0 6.0 0.00 0.02 0.01 37 1024.2
20260421173029 37 285 0.0 4.0 0.00 0.02 0.01 39 1024.4
20260421171529 36 263 0.0 0.0 0.00 0.02 0.01 40 1024.6
20260421170028 36 266 0.0 5.0 0.00 0.02 0.01 40 1024.8
20260421164526 37 315 3.0 6.0 0.00 0.02 0.01 41 1024.9
20260421163026 37 293 1.0 7.0 0.00 0.02 0.01 39 1024.9
20260421161526 36 217 0.0 6.0 0.00 0.02 0.01 38 1025.1
20260421160023 37 257 0.0 8.0 0.00 0.07 0.01 43 1025.4
20260421154539 35 213 0.0 2.0 0.00 0.07 0.01 40 1025.5
20260421153023 35 187 0.0 4.0 0.00 0.07 0.01 42 1025.7
20260421151516 33 262 0.0 3.0 0.00 0.07 0.01 46 1025.8
20260421150026 33 275 3.0 5.0 0.01 0.07 0.01 44 1026.1
20260421144516 33 194 0.0 4.0 0.01 0.07 0.01 49 1026.2
20260421143011 33 302 0.0 7.0 0.01 0.07 0.01 46 1026.4
20260421141507 31 267 1.0 5.0 0.01 0.07 0.01 50 1026.6
20260421140007 30 184 0.0 5.0 0.00 0.06 0.00 49 1026.6
20260421134515 30 166 3.0 8.0 0.00 0.06 0.00 48 1026.7
20260421133003 30 211 0.0 1.0 0.00 0.06 0.00 46 1026.7
20260421131604 29 193 0.0 0.0 0.00 0.06 0.00 48 1026.9
20260421130057 28 189 0.0 5.0 0.00 0.06 0.00 52 1027.0
20260421124553 27 211 0.0 0.0 0.00 0.06 0.00 57 1027.0
20260421123050 26 240 0.0 0.0 0.00 0.06 0.00 65 1027.1
20260421121553 25 188 0.0 0.0 0.00 0.06 0.00 68 1027.1
20260421120043 24 232 0.0 0.0 0.00 0.06 0.00 76 1026.9
20260421114539 22 232 0.0 0.0 0.00 0.06 0.00 80 1026.9
20260421113053 21 292 0.0 0.0 0.00 0.06 0.00 82 1026.9
20260421111535 20 292 0.0 0.0 0.00 0.06 0.00 84 1026.7
20260421110039 18 292 0.0 0.0 0.00 0.06 0.00 83 1026.6
20260421104532 18 292 0.0 0.0 0.00 0.06 0.00 83 1026.3
20260421103030 18 292 0.0 0.0 0.00 0.06 0.00 83 1026.2
20260421101528 18 292 0.0 0.0 0.00 0.06 0.00 83 1026.1
20260421100034 18 292 0.0 0.0 0.00 0.06 0.00 83 1026.0
20260421094537 18 292 0.0 0.0 0.00 0.06 0.00 83 1025.8
20260421093027 18 292 0.0 0.0 0.00 0.06 0.00 83 1025.6
20260421091526 18 292 0.0 0.0 0.00 0.06 0.00 82 1025.6
20260421090021 18 292 0.0 0.0 0.00 0.06 0.00 82 1025.4
20260421084520 18 292 0.0 0.0 0.00 0.06 0.00 82 1025.4
20260421083024 19 292 0.0 0.0 0.00 0.06 0.00 82 1025.3
20260421081517 19 292 0.0 0.0 0.00 0.06 0.00 82 1025.3
20260421080019 19 292 0.0 0.0 0.00 0.06 0.00 81 1025.2
20260421074516 19 292 0.0 0.0 0.00 0.06 0.00 81 1025.2
20260421073020 19 292 0.0 0.0 0.00 0.06 0.00 80 1025.0
20260421071512 19 292 0.0 0.0 0.00 0.06 0.00 80 1025.0
20260421070012 20 292 0.0 0.0 0.00 0.06 0.00 79 1025.0
20260421064515 20 292 0.0 0.0 0.00 0.06 0.00 78 1024.9
20260421063008 20 292 0.0 0.0 0.00 0.06 0.00 77 1025.0
20260421061507 20 292 0.0 0.0 0.00 0.06 0.00 76 1024.9
20260421060006 20 292 0.0 0.0 0.00 0.06 0.00 76 1024.8
20260421054508 20 292 0.0 0.0 0.00 0.06 0.00 75 1024.7
20260421053002 21 292 0.0 0.0 0.00 0.06 0.00 75 1024.7
20260421051501 21 292 0.0 0.0 0.00 0.06 0.00 75 1024.7
20260421050103 21 292 0.0 0.0 0.00 0.06 0.00 76 1024.6